| time (UTC) | temp F | wind direction | speed knots | gust knots | rain 1hr in | rain 24hr in | rain mn in | humidity % | barometer mb |
| 20260508120606 | 40 | 0 | 0.0 | 0.0 | 0.00 | 0.00 | 0.00 | 36 | 1023.6 |
| 20260508120112 | 40 | 0 | 0.0 | 0.0 | 0.00 | 0.00 | 0.00 | 37 | 1023.7 |
| 20260508110605 | 39 | 0 | 0.0 | 0.0 | 0.00 | 0.00 | 0.00 | 37 | 1023.8 |
| 20260508100606 | 40 | 0 | 0.0 | 0.0 | 0.00 | 0.00 | 0.00 | 36 | 1024.2 |
| 20260508100112 | 40 | 0 | 0.0 | 0.0 | 0.00 | 0.00 | 0.00 | 37 | 1024.2 |
| 20260508090607 | 40 | 0 | 0.0 | 0.0 | 0.00 | 0.00 | 0.00 | 36 | 1024.3 |
| 20260508090111 | 40 | 0 | 0.0 | 0.0 | 0.00 | 0.00 | 0.00 | 36 | 1024.3 |
| 20260508080606 | 41 | 0 | 0.0 | 0.0 | 0.00 | 0.00 | 0.00 | 34 | 1025.0 |
| 20260508080111 | 41 | 0 | 0.0 | 0.0 | 0.00 | 0.00 | 0.00 | 33 | 1025.0 |
| 20260508070613 | 42 | 0 | 0.0 | 0.0 | 0.00 | 0.00 | 0.00 | 32 | 1025.3 |
| 20260508070111 | 42 | 0 | 0.0 | 0.0 | 0.00 | 0.00 | 0.00 | 33 | 1025.3 |
| 20260508060606 | 42 | 0 | 0.0 | 0.0 | 0.00 | 0.00 | 0.00 | 35 | 1025.5 |
| 20260508060112 | 42 | 0 | 0.0 | 0.0 | 0.00 | 0.00 | 0.00 | 35 | 1025.5 |
| 20260508050607 | 44 | 0 | 0.0 | 0.0 | 0.00 | 0.00 | 0.00 | 32 | 1025.8 |
| 20260508050111 | 44 | 0 | 0.0 | 0.0 | 0.00 | 0.00 | 0.00 | 32 | 1025.8 |
| 20260508040606 | 48 | 0 | 0.0 | 0.0 | 0.00 | 0.00 | 0.00 | 25 | 1025.8 |
| 20260508030606 | 54 | 0 | 0.0 | 0.0 | 0.00 | 0.00 | 0.00 | 18 | 1025.8 |
| 20260508030112 | 55 | 0 | 0.0 | 0.9 | 0.00 | 0.00 | 0.00 | 18 | 1025.8 |
| 20260508020606 | 57 | 0 | 0.0 | 0.0 | 0.00 | 0.00 | 0.00 | 16 | 1025.5 |
| 20260508020111 | 58 | 0 | 0.0 | 0.0 | 0.00 | 0.00 | 0.00 | 16 | 1025.4 |
| 20260508010606 | 63 | 0 | 2.6 | 10.4 | 0.00 | 0.00 | 0.00 | 11 | 1025.4 |
| 20260508010112 | 63 | 0 | 3.5 | 11.3 | 0.00 | 0.00 | 0.00 | 11 | 1025.4 |
| 20260508000606 | 63 | 0 | 7.8 | 13.0 | 0.00 | 0.00 | 0.00 | 11 | 1025.8 |
| 20260507230111 | 65 | 0 | 5.2 | 10.4 | 0.00 | 0.00 | 0.00 | 11 | 1026.4 |
| 20260507220606 | 64 | 0 | 2.6 | 8.7 | 0.00 | 0.00 | 0.00 | 9 | 1027.4 |
| 20260507210606 | 63 | 0 | 1.7 | 11.3 | 0.00 | 0.00 | 0.00 | 9 | 1028.6 |
| 20260507210111 | 63 | 0 | 4.3 | 11.3 | 0.00 | 0.00 | 0.00 | 9 | 1028.7 |
| 20260507190606 | 62 | 0 | 0.9 | 17.4 | 0.00 | 0.00 | 0.00 | 10 | 1030.4 |
| 20260507190111 | 62 | 0 | 2.6 | 17.4 | 0.00 | 0.00 | 0.00 | 10 | 1030.5 |
| 20260507180111 | 60 | 0 | 1.7 | 7.8 | 0.00 | 0.00 | 0.00 | 11 | 1031.6 |
| 20260507170606 | 57 | 0 | 0.9 | 4.3 | 0.00 | 0.00 | 0.00 | 15 | 1032.3 |
| 20260507170110 | 57 | 0 | 0.9 | 4.3 | 0.00 | 0.00 | 0.00 | 14 | 1032.4 |
| 20260507160605 | 52 | 0 | 0.0 | 5.2 | 0.00 | 0.00 | 0.00 | 19 | 1033.5 |
| 20260507160111 | 52 | 0 | 0.0 | 2.6 | 0.00 | 0.00 | 0.00 | 17 | 1033.6 |
| 20260507150606 | 49 | 0 | 0.0 | 0.9 | 0.00 | 0.05 | 0.00 | 20 | 1034.4 |
| 20260507150111 | 48 | 0 | 0.0 | 0.9 | 0.00 | 0.06 | 0.00 | 22 | 1034.4 |
| 20260507140606 | 40 | 0 | 0.0 | 1.7 | 0.00 | 0.09 | 0.00 | 30 | 1034.7 |
| 20260507140111 | 40 | 0 | 0.0 | 0.9 | 0.00 | 0.09 | 0.00 | 31 | 1034.7 |
| 20260507130606 | 35 | 0 | 0.0 | 1.7 | 0.00 | 0.09 | 0.00 | 37 | 1034.4 |
| 20260507130111 | 34 | 0 | 0.0 | 1.7 | 0.00 | 0.09 | 0.00 | 38 | 1034.4 |